Showing default

ESSA 1 (OT-3), 1982

Orbit data source: Space-Track

ESSA 1 (OT-3), 1982 is a payload satellite owned by ESSA (US) in SSO that was launched on Thu, 03 Feb 1966 UTC via a THOR DELTA C launch vehicle from the Air Force Eastern Test Range (AFETR). Payload-class satellites include a variety of spacecraft equipped with specific instruments for various scientific and technological missions. These include communications satellites like Starlink; space stations such as the ISS; scientific satellites like the Hubble; Earth observation satellites from companies like Planet Labs, Umbra, and HawkEye 360; GPS; miniature CubeSats for education and research; and military/defense satellites.

Loading next visibility...
Identifier
1982, 1966-008A
Orbit
SSO
Country
Flag of USUS
Related business
Manufacturer
RCA/East Windsor
Mission
Non-operational spacecraft
Bus & Motor
TIROS I, Unknown motor
Mass
138 kg wet, 138 kg dry
Launch date (UTC)
1966-02-03 (60 years ago)
Launch vehicle
THOR DELTA C
Launch site
Air Force Eastern Test Range (AFETR)
Object type
Payload
Rocket body
Debris
Shape & HBR
Unknown
Radar Cross Section
Medium (>0.1 m² and <1 m²)

Expand to show TLE details & history
Last TLE update: 15 hours ago

TLE from 15 hours ago
0 ESSA 1 (OT-3)
1 01982U 66008A   25301.61509847  .00000282  00000-0  83260-4 0  9996
2 01982  97.8445 345.4424 0081284  99.7816 261.2569 14.48208850124422
Epoch: 2025-10-28T14:45Z
TLE epoch observation values (Epoch: 2025-10-28T14:45:44.507Z)
Latitude
-0.00009°
Longitude
86.80692°
Altitude
743.729 km
Speed
7.478 km/s
True Right ascension
23h 01m 46s
True Declination
0° 00' 00"
Sunlit
Object was in full shadow at epoch
Visualization orbit readout
Latitude
Unknown
Longitude
Unknown
Altitude
Unknown
Speed
Unknown
Apparent Right ascension
Unknown
Apparent Declination
Unknown
Sunlit
N/A
Visualization observer readout
Local Sidereal Time
01:37:56
Azimuth
Unknown
Elevation
Unknown
Doppler factor
Unknown
Orbital elements
Apogee altitude
786.352 km
Perigee altitude
670.819 km
Semi-major axis
7,106.722 km
Eccentricity
0.00813
Inclination
97.8445°
RAAN
345.4424°
Arg. of periapsis
99.7816°
True anomaly
260.33774°
Mean anomaly
261.2569°
Eccentric anomaly
260.79717°
Mean motion
3.62276 °/min
Orbital period
99.37 mins
BSTAR
0.00008326
Loading maneuver chart data...
Computing Atmospheric mass density...
Loading historical data...
Loading historical data...
Loading historical data...
Loading historical data...
Loading historical data...
Loading historical data...
Loading historical data...
Other satellites on launch #8 in the year 1966 (1966-02-03 UTC)

Documentation

Showing up to 5 results
|